Regional Weather Roundup
Issued by NWS

Home | Current Version | Previous Version | Text Only | Print | Product List | Glossary Off
Versions: 1 2 3 4 5 6 7 8 9 10 11 12 13 14 15 16 17 18 19 20 21 22 23 24 25 26 27 28 29 30 31 32 33 34 35 36 37 38 39 40 41 42 43 44 45 46 47 48 49 50

000
ASUS43 KLOT 300010
RWRIL

ILLINOIS REGIONAL WEATHER ROUNDUP
NATIONAL WEATHER SERVICE CHICAGO/ROMEOVILLE IL
700 PM CDT MON SEP 29 2014

NOTE: "FAIR" INDICATES FEW OR NO CLOUDS BELOW 12,000 FEET WITH NO
SIGNIFICANT WEATHER AND/OR OBSTRUCTIONS TO VISIBILITY.

* THESE STATIONS ARE NOT UNDER NWS QUALITY CONTROL. THEY ALSO MAY NOT
  REPORT WEATHER SUCH AS PRECIPITATION OR FOG.

ILZ001-002-007-009-015-016-024-300100-
NORTHWEST ILLINOIS

CITY           SKY/WX    TMP DP  RH WIND       PRES   REMARKS
MOLINE         NOT AVBL
SAVANNA*       MOCLDY    76  58  53 CALM      29.93S
$$

ILZ003-004-008-010-011-017-018-300100-
NORTH CENTRAL ILLINOIS

CITY           SKY/WX    TMP DP  RH WIND       PRES   REMARKS
ROCKFORD       PTCLDY    72  59  63 N12       29.95R
6HR MIN TEMP:  72; 6HR MAX TEMP:  84;

FREEPORT*      MOCLDY    69  58  66 CALM      29.96S
ROCHELLE*      CLEAR     71  57  62 CALM      29.94S
DE KALB*       CLEAR     70  56  61 W6        29.95S
PERU*          CLEAR     75  57  53 W5        29.94S
$$

ILZ005-006-012>014-019>023-300100-
NORTHEAST ILLINOIS

CITY           SKY/WX    TMP DP  RH WIND       PRES   REMARKS
CHICAGO-OHARE  CLOUDY    60  55  83 NE20      29.97R
6HR MIN TEMP:  60; 6HR MAX TEMP:  83;

CHICAGO-MIDWAY MOCLDY    65  59  81 N17G28    29.96R
6HR MIN TEMP:  65; 6HR MAX TEMP:  84;

AURORA         PTCLDY    72  55  55 NW3       29.93S
6HR MIN TEMP:  72; 6HR MAX TEMP:  84;

LANSING*       PTCLDY    74  58  56 W3        29.92S
JOLIET*        PTCLDY    68  60  75 CALM      29.93S
WAUKEGAN       NOT AVBL
DUPAGE AIRPORT PTCLDY    70  57  63 MISG      29.94R
6HR MIN TEMP:  70; 6HR MAX TEMP:  85;

KANKAKEE*      CLEAR     72  58  60 CALM      29.93F
WHEELING       CLOUDY    59  55  87 N16G31    30.00R
6HR MIN TEMP:  59; 6HR MAX TEMP:  84;

MORRIS*        PTCLDY    74  59  59 W5        29.92S
ROMEOVILLE*    CLEAR     71  56  58 N5        29.93S
NORTHERLY ISL    N/A     61  58  90 MISG        N/A
$$

LMZ740>746-300100-
SOUTHERN LAKE MICHIGAN

STATION/POSITION SKY/WX   TEMP    WIND        PRES    VSBY  WAVE
                          AIR SEA DIR/SP/G                  HT/PER
                          (F)     (DEG/KT/KT) (MB)    (MI)  (FT/S)
SOUTHERN BUOY              57 64  350/ 21/ 27 1014.8R         5/ 5
WAUKEGAN HARBOR                    10/ 23/ 29   N/A
HARRISON CRIB                     360/ 25/ 31   N/A
BURNHAM HARBOR             61     360/ 16/ 24   N/A
CALUMET HARBOR             62     340/ 19/ 25 1013.3R
MICHIGAN CITY              75     160/  3/  4   N/A
MICHIGAN CITY 6N           72 69  200/  2/  2   N/A           0
ST. JOSEPH                 63 65   10/ 21/ 27   N/A           0
$$

ILZ025>027-034>036-040-047-049-050-058-095>099-300100-
WEST-CENTRAL ILLINOIS

CITY           SKY/WX    TMP DP  RH WIND       PRES   REMARKS
QUINCY         CLEAR     76  59  55 CALM      29.96S
GALESBURG*     CLEAR     71  59  65 CALM      29.95S
MACOMB*        CLEAR     71  58  62 W5        29.98S
JACKSONVILLE*  CLEAR     78  58  51 W3        29.97S
PITTSFIELD*    CLEAR     76  58  53 CALM      29.97S
$$

ILZ028>032-037-038-041>044-048-051>054-059>061-300100-
CENTRAL ILLINOIS

CITY           SKY/WX    TMP DP  RH WIND       PRES   REMARKS
PONTIAC        CLEAR     73  57  56 W5        29.94S
DECATUR        PTCLDY    76  55  48 N5        29.95S
PEORIA         CLEAR     75  59  57 CALM      29.95S
6HR MIN TEMP:  75; 6HR MAX TEMP:  87;

LACON*         PTCLDY    69  60  73 CALM      29.93F
LINCOLN*       CLEAR     74  58  56 CALM      29.92S
SPRINGFIELD    CLEAR     75  58  55 W5        29.95F
6HR MIN TEMP:  75; 6HR MAX TEMP:  87;

TAYLORVILLE    CLEAR     73  55  53 CALM      29.95S
$$

ILZ033-039-045-046-055>057-062-063-300100-
EAST-CENTRAL ILLINOIS

CITY           SKY/WX    TMP DP  RH WIND       PRES   REMARKS
CHAMPAIGN      CLEAR     72  55  56 NW10      29.95S
DANVILLE*      CLEAR     69  58  66 CALM      29.92S
RANTOUL*       CLEAR     75  52  44 W5        29.95S
MATTOON        CLEAR     71  60  68 CALM      29.94S
PARIS*         CLEAR     66  60  81 CALM      29.95S
$$

ILZ079-100>102-300100-
SOUTHWEST ILLINOIS

CITY           SKY/WX    TMP DP  RH WIND       PRES   REMARKS
ALTON          CLEAR     72  55  56 W6        29.96S
BELLEVILLE     CLEAR     74  60  61 W2        29.95S
CAHOKIA*       CLEAR     75  59  57 CALM      29.95S
SPARTA*        CLEAR     77  57  50 CALM      29.96S
$$

ILZ064>066-069>071-074>076-080>082-084>086-088>090-092>094-300100-
SOUTH-CENTRAL ILLINOIS

CITY           SKY/WX    TMP DP  RH WIND       PRES   REMARKS
CARBONDALE     CLEAR     69  59  70 CALM      29.95S
6HR MIN TEMP:  69; 6HR MAX TEMP:  87;

CAIRO*         CLEAR     70  62  76 CALM      29.94S
EFFINGHAM*     RAIN      70  58  64 CALM      29.94F
MARION         CLEAR     72  59  64 CALM      29.96S
CENTRALIA*     CLEAR     70  58  64 CALM      29.96R HAZE
SALEM*         CLEAR     71  65  80 CALM      29.96S
METROPOLIS*    CLEAR     69  59  69 CALM      29.94S
$$

ILZ067-068-072-073-078-083-087-091-300100-
SOUTHEAST ILLINOIS

CITY           SKY/WX    TMP DP  RH WIND       PRES   REMARKS
LAWRENCEVILLE  CLEAR     72  59  63 NE5       29.94S
FLORA*         CLEAR     71  55  56 CALM      29.95S
FAIRFIELD*     CLEAR     68  61  77 CALM      29.94S
HARRISBURG*    CLEAR     74  57  54 CALM      29.95S
ROBINSON*      CLEAR     72  60  65 CALM      29.94F
CARMI*         CLEAR     72  60  65 CALM      29.94S
$$

ABBREVIATIONS USED IN REMARKS
   TC - TEMPERATURE IN CELSIUS
  WCI - WIND CHILL INDEX
   HX - HEAT INDEX
  VSB - VISIBILITY
$$




USA.gov is the U.S. government's official web portal to all federal, state and local government web resources and services.